User: anonymous   Login
Location: State Camp
(41.2367°N, 77.7828°W)
Time: 13:18:40
(UTC-05:00)
Language:

Lacrosse 5 - Orbit

View from above orbital plane
View from above orbital plane
View from above satellite
View from above satellite

Ground track
Ground track

The orbit data is extracted from the following two-line orbital elements,

1 28646U 05016A   16329.97068229 0.00000000  00000-0  00000-0 0    05
2 28646  57.0130 168.2162 0009000 178.6579 181.3421 14.51935732    02
Epoch (UTC): 24 November 2016 23:17:46
Eccentricity: 0.0009000
inclination: 57.0130°
perigee height: 713 km
apogee height: 726 km
right ascension of ascending node: 168.2162°
argument of perigee: 178.6579°
revolutions per day: 14.51935732
mean anomaly at epoch: 181.3421°
orbit number at epoch: 0

The dashed part of the orbit path shows where the satellite is in the earth's shadow,  

DLR